Weather History for KRYW - January, 2013

Change the Weather History Date:

Friday, January 11, 2013

  Actual Average (KATT) Record (KATT)
Temperature  
Mean Temperature 60 °F 51 °F  
Max Temperature 71 °F 61 °F 85 °F (1990)
Min Temperature 50 °F 41 °F 11 °F (1982)
Degree Days  
Heating Degree Days 4 14  
Month to date heating degree days 154  
Since 1 July heating degree days 766  
Cooling Degree Days 0 0  
Month to date cooling degree days 0  
Year to date cooling degree days 0  
Growing Degree Days 10 (Base 50)    
Moisture  
Dew Point 52 °F    
Average Humidity 74    
Maximum Humidity 94    
Minimum Humidity 53    
Precipitation  
Precipitation 0.00 in 0.07 in 1.32 in (1920)
Month to date precipitation 0.81  
Year to date precipitation 0.81  
Snow  
Snow 0.00 in - - ()
Month to date snowfall  
Since 1 July snowfall  
Snow Depth -    
Sea Level Pressure  
Sea Level Pressure 29.91 in    
Wind  
Wind Speed 7 mph (South)    
Max Wind Speed 15 mph    
Max Gust Speed 26 mph    
Visibility 9 miles    
Events      
T = Trace of Precipitation, MM = Missing Value Source: NWS Daily Summary

Daily Weather History Graph

Daily Weather History Graph

Search for Another Location

Airport or City:

Trip Planner

Search our weather history database for the weather conditions in past years. The results will help you decide how hot, cold, wet, or windy it might be!

Date:

Astronomy

Jan. 11, 2013 Rise Set
Actual Time 7:29 AM CST 5:50 PM CST
Civil Twilight 7:03 AM CST 6:16 PM CST
Nautical Twilight 6:34 AM CST 6:46 PM CST
Astronomical Twilight 6:05 AM CST 7:15 PM CST
Moon 7:07 AM CST (1/11) 6:05 PM CST (1/11)
Length of Visible Light 11h 12m
Length of Day
10h 20m
Waning Crescent, 0% of the Moon is Illuminated
Jan 11
Waning Crescent
Jan 11
New
Jan 18
First Quarter
Jan 26
Full
Feb 3
Last Quarter

Hourly Weather History & Observations

Time (CST) Temp. Dew Point Humidity Pressure Visibility Wind Dir Wind Speed Gust Speed Precip Events Conditions
12:15 AM 53.6 °F 42.8 °F 67% 30.00 in 10.0 mi SSW 4.6 mph - N/A   Clear
12:35 AM 51.8 °F 42.8 °F 71% 30.00 in 10.0 mi South 3.5 mph - N/A   Clear
12:55 AM 51.8 °F 42.8 °F 71% 29.99 in 10.0 mi South 4.6 mph - N/A   Clear
1:15 AM 51.8 °F 42.8 °F 71% 30.00 in 10.0 mi South 4.6 mph - N/A   Clear
1:35 AM 53.6 °F 41.0 °F 62% 30.01 in 10.0 mi South 5.8 mph - N/A   Clear
1:55 AM 53.6 °F 41.0 °F 62% 30.01 in 10.0 mi South 5.8 mph - N/A   Clear
2:15 AM 51.8 °F 41.0 °F 67% 30.01 in 10.0 mi SSE 5.8 mph - N/A   Clear
2:35 AM 50.0 °F 42.8 °F 76% 30.02 in 10.0 mi South 5.8 mph - N/A   Clear
2:55 AM 51.8 °F 41.0 °F 67% 30.01 in 10.0 mi South 8.1 mph 16.1 mph N/A   Clear
3:15 AM 53.6 °F 42.8 °F 67% 30.01 in 10.0 mi South 5.8 mph - N/A   Clear
3:35 AM 53.6 °F 42.8 °F 67% 30.00 in 10.0 mi South 8.1 mph - N/A   Clear
3:55 AM 51.8 °F 42.8 °F 71% 29.99 in 10.0 mi South 8.1 mph - N/A   Clear
4:15 AM 51.8 °F 44.6 °F 76% 29.98 in 10.0 mi South 8.1 mph - N/A   Clear
4:35 AM 51.8 °F 44.6 °F 76% 29.97 in 10.0 mi South 9.2 mph - N/A   Clear
4:55 AM 51.8 °F 44.6 °F 76% 29.97 in 10.0 mi South 8.1 mph - N/A   Clear
5:15 AM 51.8 °F 44.6 °F 76% 29.96 in 10.0 mi South 8.1 mph - N/A   Clear
5:35 AM 51.8 °F 44.6 °F 76% 29.96 in 10.0 mi SSW 6.9 mph - N/A   Clear
5:55 AM 51.8 °F 46.4 °F 82% 29.96 in 10.0 mi SSW 11.5 mph 18.4 mph N/A   Clear
6:15 AM 51.8 °F 46.4 °F 82% 29.96 in 10.0 mi SSW 11.5 mph 16.1 mph N/A   Clear
6:35 AM 51.8 °F 46.4 °F 82% 29.95 in 10.0 mi SSW 9.2 mph 18.4 mph N/A   Clear
6:55 AM 51.8 °F 46.4 °F 82% 29.96 in 10.0 mi SW 8.1 mph 16.1 mph N/A   Clear
7:15 AM 53.6 °F 46.4 °F 77% 29.95 in 10.0 mi SSW 11.5 mph 17.3 mph N/A   Clear
7:35 AM 53.6 °F 46.4 °F 77% 29.95 in 10.0 mi SSW 12.7 mph 19.6 mph N/A   Clear
7:55 AM 53.6 °F 46.4 °F 77% 29.95 in 10.0 mi SW 6.9 mph - N/A   Clear
8:15 AM 53.6 °F 46.4 °F 77% 29.96 in 10.0 mi SSW 10.4 mph - N/A   Clear
8:35 AM 53.6 °F 46.4 °F 77% 29.96 in 10.0 mi SSW 9.2 mph - N/A   Clear
8:55 AM 55.4 °F 46.4 °F 72% 29.96 in 10.0 mi SSW 10.4 mph 16.1 mph N/A   Clear
9:15 AM 55.4 °F 46.4 °F 72% 29.96 in 10.0 mi SSW 9.2 mph - N/A   Clear
9:35 AM 57.2 °F 46.4 °F 67% 29.97 in 10.0 mi SW 5.8 mph - N/A   Clear
9:55 AM 59.0 °F 48.2 °F 67% 29.96 in 10.0 mi SSW 9.2 mph - N/A   Clear
10:15 AM 60.8 °F 50.0 °F 68% 29.96 in 10.0 mi SSW 11.5 mph 17.3 mph N/A   Clear
10:35 AM 60.8 °F 51.8 °F 72% 29.97 in 10.0 mi SSW 13.8 mph 19.6 mph N/A   Clear
10:55 AM 62.6 °F 53.6 °F 72% 29.96 in 10.0 mi SSW 11.5 mph 18.4 mph N/A   Clear
11:15 AM 60.8 °F 53.6 °F 77% 29.95 in 10.0 mi SSW 12.7 mph 20.7 mph N/A   Clear
11:55 AM 62.6 °F 53.6 °F 72% 29.93 in 10.0 mi SSW 11.5 mph 18.4 mph N/A   Clear
12:15 PM 64.4 °F 53.6 °F 68% 29.92 in 10.0 mi SSW 9.2 mph 18.4 mph N/A   Clear
12:35 PM 66.2 °F 53.6 °F 64% 29.91 in 10.0 mi SSW 11.5 mph 19.6 mph N/A   Clear
12:55 PM 68.0 °F 53.6 °F 60% 29.90 in 10.0 mi SSW 10.4 mph 23.0 mph N/A   Clear
1:15 PM 68.0 °F 53.6 °F 60% 29.88 in 10.0 mi SSW 10.4 mph 20.7 mph N/A   Clear
1:35 PM 69.8 °F 53.6 °F 56% 29.86 in 10.0 mi SSW 12.7 mph 26.5 mph N/A   Clear
1:55 PM 71.6 °F 53.6 °F 53% 29.87 in 10.0 mi SSW 15.0 mph 19.6 mph N/A   Clear
2:15 PM 71.6 °F 53.6 °F 53% 29.86 in 10.0 mi SSW 10.4 mph 18.4 mph N/A   Clear
2:35 PM 71.6 °F 55.4 °F 57% 29.84 in 10.0 mi South 11.5 mph 18.4 mph N/A   Scattered Clouds
2:55 PM 71.6 °F 55.4 °F 57% 29.84 in 10.0 mi South 10.4 mph 18.4 mph N/A   Scattered Clouds
3:15 PM 71.6 °F 55.4 °F 57% 29.84 in 10.0 mi SSW 12.7 mph 20.7 mph N/A   Scattered Clouds
3:35 PM 71.6 °F 57.2 °F 60% 29.84 in 10.0 mi South 8.1 mph 19.6 mph N/A   Scattered Clouds
3:55 PM 69.8 °F 57.2 °F 64% 29.84 in 10.0 mi SSE 11.5 mph 19.6 mph N/A   Mostly Cloudy
4:15 PM 69.8 °F 57.2 °F 64% 29.84 in 10.0 mi SSE 12.7 mph 21.9 mph N/A   Mostly Cloudy
4:35 PM 69.8 °F 59.0 °F 68% 29.84 in 10.0 mi South 9.2 mph 17.3 mph N/A   Mostly Cloudy
4:55 PM 68.0 °F 59.0 °F 73% 29.84 in 10.0 mi SSE 9.2 mph - N/A   Overcast
5:15 PM 68.0 °F 59.0 °F 73% 29.84 in 10.0 mi South 9.2 mph 17.3 mph N/A   Overcast
5:35 PM 66.2 °F 59.0 °F 78% 29.85 in 10.0 mi South 10.4 mph - N/A   Overcast
5:55 PM 66.2 °F 59.0 °F 78% 29.84 in 10.0 mi SSE 4.6 mph - N/A   Overcast
6:15 PM 64.4 °F 59.0 °F 83% 29.85 in 10.0 mi South 5.8 mph - N/A   Overcast
6:35 PM 64.4 °F 59.0 °F 83% 29.84 in 10.0 mi South 5.8 mph - N/A   Overcast
6:55 PM 64.4 °F 59.0 °F 83% 29.85 in 10.0 mi SE 3.5 mph - N/A   Overcast
7:15 PM 64.4 °F 59.0 °F 83% 29.85 in 10.0 mi Calm Calm - N/A   Overcast
7:35 PM 64.4 °F 59.0 °F 83% 29.85 in 10.0 mi ESE 3.5 mph - N/A   Overcast
7:55 PM 64.4 °F 59.0 °F 83% 29.86 in 10.0 mi Calm Calm - N/A   Overcast
8:15 PM 64.4 °F 59.0 °F 83% 29.86 in 10.0 mi SE 3.5 mph - N/A   Overcast
8:35 PM 64.4 °F 59.0 °F 83% 29.85 in 10.0 mi SE 5.8 mph - N/A   Overcast
8:55 PM 64.4 °F 60.8 °F 88% 29.84 in 10.0 mi SE 5.8 mph - N/A   Overcast
9:15 PM 64.4 °F 60.8 °F 88% 29.84 in 7.0 mi SE 4.6 mph - N/A   Overcast
9:35 PM 64.4 °F 62.6 °F 94% 29.84 in 7.0 mi SE 5.8 mph - N/A   Overcast
9:55 PM 64.4 °F 62.6 °F 94% 29.85 in 7.0 mi South 5.8 mph - N/A   Overcast
10:15 PM 64.4 °F 62.6 °F 94% 29.86 in 5.0 mi South 6.9 mph - N/A   Overcast
10:35 PM 64.4 °F 62.6 °F 94% 29.86 in 5.0 mi SSE 8.1 mph 16.1 mph N/A   Overcast
10:55 PM 64.4 °F 62.6 °F 94% 29.86 in 5.0 mi SSE 6.9 mph - N/A   Overcast
11:15 PM 66.2 °F 62.6 °F 88% 29.86 in 5.0 mi SSE 8.1 mph - N/A   Overcast
11:35 PM 66.2 °F 62.6 °F 88% 29.85 in 5.0 mi SSE 4.6 mph - N/A   Overcast
11:55 PM 66.2 °F 64.4 °F 94% 29.86 in 4.0 mi Calm Calm - N/A   Overcast